Find Starlink 4423

NORAD ID: 53209 Int'l Des: 2022-084 Owner: SPXS Country: US Constellation: starlink operational
LEOCIRCULARRETROGRADESSO

当前视图

正在加载3D地球...

About Starlink 4423

Starlink 4423 (NORAD 53209) is a starlink constellation satellite (v1.5) launched Jul 22, 2022 by SPXS of US. It operates in LEO, CIRCULAR, RETROGRADE, SSO orbit with a mass of 297.00 kg.

关于 Starlink 4423

正在加载描述...

即将过境

Passes for default location (London). Set your location on the main map for personalized predictions.

高度历史

Loading altitude history...

两行轨道根数

1 53209U 22084W 26164.13137242 -.00000806 00000-0 -51855-4 0 9991
2 53209 97.3666 223.3991 0001977 113.5773 246.5662 15.05658899213674
Epoch: Jun 13, 2026 • Age: 12 hours

当前状态

高度 578.9 km
速度 7.57 km/s
星下点 -80.80°S, 142.95°W
发射日期 Jul 22, 2022
运行时间 3.8 years
类型 internet

技术详情

分类 Payload
质量 297.00 kg
干质量 275.00 kg
总质量 297.00 kg
长度 0.20 m
直径 2.80 m
跨度 9.00 m
形状 Box + pan
制造商 SPXS
平台类型 Starlink
阶段状态 In Orbit
所有者/国家 SPXS/US

Most Searched